EW6606 Weather Reports


Display with metric or nautical units.
time (UTC)temp
F
wind
direction
speed
MPH
gust
MPH
rain 1hr
in
rain 24hr
in
rain mn
in
humidity
%
barometer
mb
20260906032431 80 50 0.0 2.0 0.00 0.03 0.03 84 1013.8
20260906031925 80 139 1.0 2.0 0.00 0.03 0.03 84 1013.9
20260906031420 80 195 0.0 0.0 0.00 0.03 0.03 83 1013.8
20260906030915 80 20 1.0 2.0 0.00 0.03 0.03 83 1013.8
20260906030410 80 117 0.0 1.0 0.00 0.03 0.03 83 1013.7
20260906025904 80 155 0.0 2.0 0.00 0.03 0.03 83 1013.7
20260906025359 80 155 1.0 2.0 0.00 0.03 0.03 83 1013.7
20260906024858 80 129 0.0 2.0 0.00 0.03 0.03 84 1013.8
20260906024357 80 130 1.0 2.0 0.00 0.03 0.03 83 1013.7
20260906023852 80 142 1.0 2.0 0.00 0.03 0.03 83 1013.7
20260906023348 80 130 0.0 0.0 0.00 0.03 0.03 82 1013.6
20260906022843 81 129 1.0 2.0 0.00 0.03 0.03 82 1013.6
20260906022338 81 211 0.0 1.0 0.00 0.03 0.03 81 1013.6
20260906021834 81 297 0.0 0.0 0.00 0.03 0.03 81 1013.6
20260906021333 81 297 0.0 1.0 0.00 0.03 0.03 81 1013.6
20260906020828 81 113 0.0 2.0 0.00 0.03 0.03 81 1013.4
20260906020327 81 123 2.0 2.0 0.00 0.03 0.03 81 1013.3
20260906015822 81 15 0.0 1.0 0.00 0.03 0.03 81 1013.3
20260906015321 81 172 1.0 2.0 0.00 0.03 0.03 81 1013.2
20260906014820 82 122 1.0 2.0 0.00 0.03 0.03 80 1012.9
20260906014316 82 89 0.0 1.0 0.00 0.03 0.03 80 1012.9
20260906013812 82 155 2.0 3.0 0.00 0.03 0.03 80 1013.0
20260906013307 82 129 0.0 1.0 0.00 0.03 0.03 79 1012.8
20260906012803 82 117 0.0 1.0 0.00 0.03 0.03 78 1012.6
20260906012257 83 142 0.0 1.0 0.00 0.03 0.03 77 1012.4
20260906011752 83 117 0.0 0.0 0.00 0.03 0.03 77 1012.5
20260906011252 83 62 0.0 0.0 0.00 0.03 0.03 77 1012.2
20260906010748 83 64 1.0 2.0 0.00 0.03 0.03 76 1012.2
20260906010244 83 50 0.0 2.0 0.00 0.03 0.03 76 1012.2
20260906005738 84 154 0.0 1.0 0.00 0.03 0.03 76 1012.1
20260906005232 84 187 0.0 1.0 0.00 0.03 0.03 75 1012.2
20260906004732 84 297 0.0 0.0 0.00 0.03 0.03 75 1012.3
20260906004227 84 2 1.0 2.0 0.00 0.03 0.03 75 1012.5
20260906003721 84 79 1.0 1.0 0.00 0.03 0.03 74 1012.3
20260906003212 85 269 0.0 1.0 0.00 0.03 0.03 74 1012.2
20260906002712 85 89 0.0 1.0 0.00 0.03 0.03 73 1012.2
20260906002207 85 65 0.0 1.0 0.00 0.03 0.03 73 1012.3
20260906001702 85 52 0.0 1.0 0.00 0.03 0.03 73 1012.4
20260906001201 85 37 0.0 0.0 0.00 0.03 0.03 73 1012.6
20260906000657 85 37 0.0 2.0 0.00 0.03 0.03 73 1012.5
20260906000152 85 11 2.0 2.0 0.00 0.03 0.03 73 1012.3
20260905235651 86 327 3.0 3.0 0.00 0.03 0.03 73 1012.5
20260905235146 86 149 2.0 2.0 0.00 0.03 0.03 73 1012.3
20260905234641 86 142 0.0 2.0 0.00 0.03 0.03 72 1012.4
20260905234137 86 162 0.0 2.0 0.00 0.03 0.03 72 1012.4
20260905233632 86 165 1.0 3.0 0.00 0.03 0.03 72 1012.5
20260905233126 86 129 0.0 2.0 0.00 0.03 0.03 72 1012.5
20260905232622 86 147 2.0 6.0 0.00 0.03 0.03 72 1012.5
20260905232117 86 125 2.0 3.0 0.00 0.03 0.03 73 1012.2
20260905231617 86 128 1.0 2.0 0.00 0.03 0.03 74 1012.4
20260905231114 86 119 1.0 3.0 0.00 0.03 0.03 74 1012.2
20260905230609 86 125 3.0 4.0 0.00 0.03 0.03 75 1012.1
20260905230107 86 344 2.0 5.0 0.00 0.03 0.03 76 1012.2
20260905225606 86 158 2.0 3.0 0.00 0.03 0.03 76 1012.5
20260905225101 86 129 0.0 2.0 0.00 0.03 0.03 75 1012.5
20260905224556 87 153 2.0 5.0 0.09 0.03 0.03 73 1012.5
20260905224055 88 150 3.0 5.0 0.12 0.03 0.03 72 1012.3
20260905223553 89 188 3.0 9.0 0.00 0.01 0.01 70 1012.6
20260905223049 89 95 2.0 3.0 0.00 0.01 0.01 70 1012.5
20260905222548 88 131 2.0 6.0 0.00 0.01 0.01 70 1012.5
20260905222044 88 158 2.0 4.0 0.00 0.01 0.01 70 1012.4
20260905221540 88 129 2.0 7.0 0.00 0.01 0.01 70 1012.5
20260905221036 88 195 1.0 3.0 0.00 0.01 0.01 70 1012.2
20260905220531 89 153 1.0 4.0 0.00 0.01 0.01 69 1012.1
20260905220028 89 171 3.0 5.0 0.00 0.01 0.01 68 1012.3
20260905215526 89 163 3.0 3.0 0.00 0.01 0.01 67 1012.2
20260905215023 89 189 2.0 6.0 0.00 0.01 0.01 67 1012.2
20260905214519 90 129 4.0 5.0 0.00 0.01 0.01 66 1012.1
20260905214014 90 113 2.0 5.0 0.00 0.01 0.01 66 1012.2
20260905213509 91 126 2.0 7.0 0.00 0.01 0.01 65 1012.1
20260905213004 91 177 2.0 5.0 0.00 0.01 0.01 64 1012.1
20260905212459 92 127 5.0 5.0 0.00 0.01 0.01 64 1012.1
20260905211958 92 176 2.0 6.0 0.00 0.01 0.01 62 1012.2
20260905211454 93 308 2.0 4.0 0.00 0.01 0.01 61 1012.3
20260905210950 94 284 2.0 10.0 0.00 0.01 0.01 60 1012.2
20260905210445 94 135 3.0 8.0 0.00 0.01 0.01 60 1012.3
20260905205944 94 240 0.0 5.0 0.00 0.01 0.01 60 1012.0
20260905205439 94 268 6.0 11.0 0.00 0.01 0.01 59 1012.1
20260905204938 95 148 4.0 10.0 0.00 0.01 0.01 58 1012.3
20260905204434 95 140 3.0 7.0 0.00 0.01 0.01 56 1012.2
20260905203933 96 166 4.0 6.0 0.00 0.01 0.01 55 1012.1
20260905203429 95 118 1.0 3.0 0.00 0.01 0.01 56 1012.3
20260905202924 95 229 0.0 7.0 0.00 0.01 0.01 56 1012.3
20260905202419 95 175 3.0 6.0 0.00 0.01 0.01 56 1012.3
20260905201915 94 151 2.0 5.0 0.00 0.01 0.01 57 1012.1
20260905201410 95 161 1.0 3.0 0.00 0.01 0.01 57 1012.4
20260905200910 94 148 2.0 7.0 0.00 0.01 0.01 58 1012.4
20260905200406 94 273 2.0 5.0 0.00 0.01 0.01 58 1012.6
20260905195903 94 205 0.0 2.0 0.00 0.01 0.01 59 1012.6
20260905195359 94 103 0.0 4.0 0.00 0.01 0.01 61 1012.5
20260905194854 93 304 2.0 6.0 0.00 0.01 0.01 63 1012.5
20260905194353 92 296 3.0 5.0 0.00 0.01 0.01 65 1012.4
20260905193848 91 346 0.0 2.0 0.00 0.01 0.01 67 1012.6
20260905193342 91 151 2.0 3.0 0.00 0.01 0.01 67 1012.8
20260905192838 91 223 0.0 2.0 0.00 0.01 0.01 66 1012.8
20260905192334 91 240 0.0 2.0 0.00 0.01 0.01 64 1012.8
20260905191833 91 190 2.0 4.0 0.05 0.01 0.01 64 1013.1
20260905191332 93 157 2.0 4.0 0.02 0.00 0.00 60 1013.3
20260905190831 95 131 5.0 8.0 0.00 0.00 0.00 56 1013.2
20260905190331 96 117 6.0 6.0 0.00 0.00 0.00 53 1013.3
20260905185830 98 200 3.0 7.0 0.00 0.00 0.00 52 1013.1
20260905185325 99 277 1.0 4.0 0.00 0.00 0.00 50 1013.0
20260905184824 100 123 2.0 5.0 0.00 0.00 0.00 51 1013.0
20260905184323 99 154 4.0 5.0 0.00 0.00 0.00 52 1013.5
20260905183822 97 186 3.0 6.0 0.00 0.00 0.00 54 1013.5
20260905183317 96 172 0.0 3.0 0.00 0.00 0.00 54 1013.5
20260905182812 97 143 2.0 3.0 0.00 0.00 0.00 53 1013.8
20260905182312 99 77 2.0 4.0 0.00 0.00 0.00 50 1013.7
20260905181807 99 198 1.0 4.0 0.00 0.00 0.00 49 1013.7
20260905181306 100 146 3.0 7.0 0.00 0.00 0.00 48 1013.8
20260905180800 102 188 4.0 5.0 0.00 0.00 0.00 45 1013.9
20260905180255 102 224 3.0 5.0 0.00 0.00 0.00 41 1013.9
20260905175750 102 314 3.0 5.0 0.00 0.00 0.00 43 1014.0
20260905175245 101 295 3.0 4.0 0.00 0.00 0.00 45 1014.0
20260905174740 98 348 5.0 7.0 0.00 0.00 0.00 47 1014.2
20260905174236 96 0 0.0 2.0 0.00 0.00 0.00 50 1014.2
20260905173732 96 337 2.0 3.0 0.00 0.00 0.00 49 1014.4
20260905173227 96 19 0.0 3.0 0.00 0.00 0.00 49 1014.3
20260905172727 96 165 1.0 3.0 0.00 0.00 0.00 48 1014.4
20260905172221 96 357 3.0 4.0 0.00 0.00 0.00 49 1014.5
20260905171717 96 240 2.0 5.0 0.00 0.00 0.00 48 1014.5
20260905171213 95 351 4.0 5.0 0.00 0.00 0.00 51 1014.5
20260905170710 95 273 3.0 5.0 0.00 0.00 0.00 52 1014.8
20260905170210 95 146 2.0 3.0 0.00 0.00 0.00 52 1014.8
20260905165709 95 8 4.0 4.0 0.00 0.00 0.00 51 1015.0
20260905165205 95 326 0.0 5.0 0.00 0.00 0.00 52 1015.1
20260905164659 95 310 2.0 5.0 0.00 0.00 0.00 53 1015.2
20260905164159 94 356 2.0 4.0 0.00 0.00 0.00 54 1015.1
20260905163655 94 70 1.0 7.0 0.00 0.00 0.00 53 1015.0
20260905163151 94 276 1.0 3.0 0.00 0.00 0.00 57 1015.1
20260905162647 94 77 4.0 8.0 0.00 0.00 0.00 55 1015.2
20260905162147 93 7 2.0 4.0 0.00 0.00 0.00 57 1015.1
20260905161641 93 346 2.0 5.0 0.00 0.00 0.00 57 1015.4
20260905161139 93 356 3.0 5.0 0.00 0.00 0.00 57 1015.4
20260905160639 93 307 2.0 6.0 0.00 0.00 0.00 58 1015.5
20260905160133 92 359 2.0 5.0 0.00 0.00 0.00 59 1015.3
20260905155633 92 275 1.0 4.0 0.00 0.00 0.00 59 1015.4
20260905155131 92 325 1.0 3.0 0.00 0.00 0.00 59 1015.4
20260905154626 92 352 1.0 3.0 0.00 0.00 0.00 60 1015.4
20260905154122 91 51 0.0 3.0 0.00 0.00 0.00 61 1015.5
20260905153617 91 358 0.0 5.0 0.00 0.00 0.00 62 1015.4
20260905153113 91 21 2.0 4.0 0.00 0.00 0.00 64 1015.6
20260905152607 90 320 2.0 4.0 0.00 0.00 0.00 63 1015.5
20260905152102 90 19 3.0 3.0 0.00 0.00 0.00 66 1015.6
20260905151557 89 252 0.0 2.0 0.00 0.00 0.00 67 1015.5
20260905151052 89 302 2.0 4.0 0.00 0.00 0.00 69 1015.5
20260905150548 88 41 2.0 3.0 0.00 0.00 0.00 70 1015.5
20260905150045 87 75 0.0 2.0 0.00 0.00 0.00 71 1015.5
20260905145539 87 254 2.0 4.0 0.00 0.00 0.00 72 1015.6
20260905145038 87 347 0.0 3.0 0.00 0.00 0.00 73 1015.6
20260905144533 86 259 2.0 3.0 0.00 0.00 0.00 74 1015.6
20260905144032 85 25 2.0 3.0 0.00 0.00 0.00 75 1015.7
20260905143532 85 358 2.0 2.0 0.00 0.00 0.00 77 1015.6
20260905143027 84 356 1.0 3.0 0.00 0.00 0.00 77 1015.6
20260905142525 84 18 1.0 3.0 0.00 0.00 0.00 78 1015.5
20260905142021 83 309 0.0 3.0 0.00 0.00 0.00 80 1015.6
20260905141515 83 9 2.0 3.0 0.00 0.00 0.00 80 1015.8
20260905141012 82 19 2.0 2.0 0.00 0.00 0.00 81 1015.7
20260905140507 82 27 1.0 2.0 0.00 0.00 0.00 82 1015.9
20260905140005 81 16 0.0 3.0 0.00 0.00 0.00 83 1015.8
20260905135501 81 45 0.0 3.0 0.00 0.00 0.00 83 1015.7
20260905134956 80 13 0.0 2.0 0.00 0.00 0.00 85 1015.7
20260905134455 80 326 0.0 2.0 0.00 0.00 0.00 85 1015.6
20260905133955 79 333 2.0 2.0 0.00 0.00 0.00 86 1015.9
20260905133450 79 322 0.0 2.0 0.00 0.00 0.00 87 1015.7
20260905132949 78 284 0.0 2.0 0.00 0.00 0.00 87 1015.7
20260905132445 78 320 0.0 2.0 0.00 0.00 0.00 87 1015.9
20260905131939 78 62 0.0 3.0 0.00 0.00 0.00 87 1015.7
20260905131436 77 335 1.0 2.0 0.00 0.00 0.00 88 1015.8
20260905130935 77 224 0.0 2.0 0.00 0.00 0.00 88 1015.8
20260905130430 77 303 0.0 2.0 0.00 0.00 0.00 88 1015.8
20260905125930 77 304 0.0 1.0 0.00 0.00 0.00 89 1015.9
20260905125424 77 326 0.0 2.0 0.00 0.00 0.00 89 1015.8
20260905124920 76 321 0.0 2.0 0.00 0.00 0.00 90 1015.8
20260905124417 76 321 0.0 2.0 0.00 0.00 0.00 90 1015.9
20260905123916 75 320 0.0 2.0 0.00 0.00 0.00 90 1015.8
20260905123413 75 310 0.0 2.0 0.00 0.00 0.00 90 1015.8
20260905122908 75 269 0.0 2.0 0.00 0.00 0.00 90 1015.7
20260905122407 75 291 0.0 2.0 0.00 0.00 0.00 90 1015.8
20260905121903 75 316 0.0 1.0 0.00 0.00 0.00 90 1015.7
20260905121359 74 6 0.0 1.0 0.00 0.00 0.00 90 1015.7
20260905120857 74 353 0.0 1.0 0.00 0.00 0.00 90 1015.5
20260905120352 74 341 0.0 2.0 0.00 0.00 0.00 90 1015.5
20260905115847 74 75 0.0 1.0 0.00 0.00 0.00 90 1015.5
20260905115346 74 41 0.0 2.0 0.00 0.00 0.00 90 1015.5
20260905114841 74 114 0.0 2.0 0.00 0.00 0.00 90 1015.5
20260905114340 74 129 0.0 1.0 0.00 0.00 0.00 90 1015.3
20260905113840 74 142 0.0 1.0 0.00 0.00 0.00 90 1015.4
20260905113336 74 154 0.0 1.0 0.00 0.00 0.00 90 1015.4
20260905112831 74 218 0.0 1.0 0.00 0.00 0.00 90 1015.4
20260905112326 74 347 0.0 2.0 0.00 0.00 0.00 90 1015.3
20260905111821 74 69 0.0 1.0 0.00 0.00 0.00 89 1015.4
20260905111315 74 343 0.0 1.0 0.00 0.00 0.00 89 1015.2
20260905110814 74 38 1.0 1.0 0.00 0.00 0.00 89 1015.1
20260905110308 74 165 0.0 2.0 0.00 0.00 0.00 89 1015.3
20260905105804 74 129 0.0 1.0 0.00 0.00 0.00 89 1015.0
20260905105306 74 55 0.0 1.0 0.00 0.00 0.00 89 1015.1
20260905104757 74 135 0.0 2.0 0.00 0.00 0.00 89 1015.0
20260905104254 75 217 0.0 1.0 0.00 0.00 0.00 88 1015.0
20260905103753 75 103 0.0 2.0 0.00 0.00 0.00 88 1015.1
20260905103249 75 89 0.0 2.0 0.00 0.00 0.00 88 1015.0
20260905102744 75 75 0.0 1.0 0.00 0.00 0.00 88 1015.1
20260905102242 75 134 0.0 1.0 0.00 0.00 0.00 88 1015.1
20260905101741 75 95 0.0 1.0 0.00 0.00 0.00 88 1015.0
20260905101239 75 62 0.0 1.0 0.00 0.00 0.00 88 1015.1
20260905100734 75 25 0.0 0.0 0.00 0.00 0.00 88 1015.1
20260905100230 75 38 0.0 1.0 0.00 0.00 0.00 88 1015.2
20260905095730 75 75 0.0 1.0 0.00 0.00 0.00 87 1015.1
20260905095229 75 104 0.0 1.0 0.00 0.00 0.00 87 1015.1
20260905094724 75 143 0.0 2.0 0.00 0.00 0.00 87 1015.2
20260905094219 75 140 1.0 2.0 0.00 0.00 0.00 87 1015.2
20260905093713 75 102 0.0 1.0 0.00 0.00 0.00 87 1015.1
20260905093209 75 142 0.0 2.0 0.00 0.00 0.00 87 1014.9
20260905092704 75 167 1.0 2.0 0.00 0.00 0.00 86 1015.0
20260905092200 75 130 1.0 2.0 0.00 0.00 0.00 86 1015.0
20260905091659 75 124 0.0 1.0 0.00 0.00 0.00 86 1015.1
20260905091154 75 60 0.0 2.0 0.00 0.00 0.00 85 1015.0
20260905090653 75 89 0.0 1.0 0.00 0.00 0.00 85 1015.0
20260905090150 76 109 0.0 1.0 0.00 0.00 0.00 85 1015.0
20260905085648 76 147 0.0 1.0 0.00 0.00 0.00 85 1015.1
20260905085143 76 154 0.0 1.0 0.00 0.00 0.00 85 1015.0
20260905084643 76 113 0.0 1.0 0.00 0.00 0.00 85 1015.1
20260905084138 76 116 0.0 2.0 0.00 0.00 0.00 85 1015.1
20260905083632 76 67 0.0 2.0 0.00 0.00 0.00 85 1015.0
20260905083129 76 33 0.0 1.0 0.00 0.00 0.00 85 1015.0
20260905082624 76 217 0.0 1.0 0.00 0.00 0.00 85 1014.9
20260905082120 76 297 0.0 0.0 0.00 0.00 0.00 85 1014.8
20260905081614 76 113 0.0 1.0 0.00 0.00 0.00 85 1014.9
20260905081109 76 322 0.0 2.0 0.00 0.00 0.00 84 1014.8
20260905080609 76 36 1.0 2.0 0.00 0.00 0.00 84 1014.5
20260905075556 76 93 0.0 2.0 0.00 0.00 0.00 84 1014.5
20260905075051 76 42 1.0 2.0 0.00 0.00 0.00 84 1014.5
20260905074550 76 99 1.0 2.0 0.00 0.00 0.00 83 1014.4
20260905074046 77 62 0.0 1.0 0.00 0.00 0.00 82 1014.4
20260905073541 77 129 0.0 1.0 0.00 0.00 0.00 82 1014.6
20260905073037 77 15 0.0 1.0 0.00 0.00 0.00 82 1014.6
20260905072536 77 37 0.0 1.0 0.00 0.00 0.00 82 1014.5
20260905072032 77 117 0.0 1.0 0.00 0.00 0.00 82 1014.6
20260905071528 77 89 0.0 0.0 0.00 0.00 0.00 81 1014.8
20260905071028 77 89 0.0 1.0 0.00 0.00 0.00 81 1014.8
20260905070524 77 117 0.0 1.0 0.00 0.00 0.00 81 1014.8
20260905070020 77 88 0.0 2.0 0.00 0.00 0.00 81 1014.6
20260905065517 77 102 1.0 3.0 0.00 0.00 0.00 81 1014.5
20260905065013 77 103 1.0 1.0 0.00 0.00 0.00 81 1014.6
20260905064507 77 117 0.0 2.0 0.00 0.00 0.00 80 1014.6
20260905064003 77 89 0.0 2.0 0.00 0.00 0.00 80 1014.4
20260905063456 77 89 0.0 2.0 0.00 0.00 0.00 80 1014.6
20260905062953 77 62 0.0 1.0 0.00 0.00 0.00 80 1014.5
20260905062452 77 117 0.0 1.0 0.00 0.00 0.00 80 1014.6
20260905061948 78 89 0.0 1.0 0.00 0.00 0.00 80 1014.6
20260905061442 78 128 1.0 1.0 0.00 0.00 0.00 80 1014.9
20260905060942 78 7 0.0 0.0 0.00 0.00 0.00 79 1014.9
20260905060438 78 44 0.0 1.0 0.00 0.00 0.00 79 1014.8
20260905055937 78 135 0.0 2.0 0.00 0.00 0.00 79 1014.9
20260905055432 78 150 1.0 2.0 0.00 0.00 0.00 79 1014.9
20260905054932 78 37 0.0 0.0 0.00 0.00 0.00 78 1014.9
20260905054427 78 37 0.0 1.0 0.00 0.00 0.00 78 1014.9
20260905053927 78 142 0.0 1.0 0.00 0.00 0.00 77 1014.6
20260905053422 79 129 0.0 1.0 0.00 0.00 0.00 77 1014.8
20260905052918 79 113 0.0 0.0 0.00 0.00 0.00 77 1014.8
20260905052417 79 113 0.0 1.0 0.00 0.00 0.00 77 1015.0
20260905051917 79 154 0.0 1.0 0.00 0.00 0.00 76 1014.9
20260905051412 80 129 0.0 1.0 0.00 0.00 0.00 76 1015.1
20260905050910 80 55 0.0 1.0 0.00 0.00 0.00 76 1015.1
20260905050405 80 142 0.0 0.0 0.00 0.00 0.00 75 1014.8
20260905045901 80 124 0.0 2.0 0.00 0.00 0.00 75 1015.1
20260905045356 80 89 0.0 0.0 0.00 0.00 0.00 74 1015.1
20260905044851 80 89 0.0 0.0 0.00 0.00 0.00 74 1014.9
20260905044346 81 89 0.0 0.0 0.00 0.00 0.00 74 1015.1
20260905043844 81 89 0.0 1.0 0.00 0.00 0.00 74 1015.2
20260905043340 81 25 0.0 0.0 0.00 0.00 0.00 74 1014.9
20260905042835 81 25 0.0 0.0 0.00 0.00 0.00 73 1015.0
20260905042335 81 25 0.0 0.0 0.00 0.00 0.00 73 1015.1
20260905041829 81 25 0.0 0.0 0.00 0.00 0.00 73 1015.3
20260905041325 81 25 0.0 0.0 0.00 0.00 0.00 73 1015.1
20260905040820 81 16 0.0 2.0 0.00 0.00 0.00 72 1015.1
20260905040319 81 0 0.0 1.0 0.00 0.00 0.00 71 1015.2
20260905035819 82 1 1.0 1.0 0.00 0.00 0.00 70 1015.0
20260905035314 82 61 0.0 2.0 0.00 0.00 0.00 70 1014.9
20260905034811 82 117 0.0 1.0 0.00 0.00 0.00 70 1015.0
20260905034306 82 25 0.0 1.0 0.00 0.00 0.00 70 1015.0
20260905033804 82 62 0.0 2.0 0.00 0.00 0.00 70 1015.1
20260905033300 82 25 0.0 1.0 0.00 0.00 0.00 70 1015.3
20260905032759 82 152 2.0 3.0 0.00 0.00 0.00 71 1015.2